Location: Bettgenhausen
(50.6463°N, 7.5681°E)
Time: 04:06:01
(UTC+00:00)

STARLINK-50 - Pass Details

Date: 27 February 2020
Orbit: 528 x 531 km, 53.0° (Epoch: 29 March)

Event Time Altitude Azimuth Distance (km) Brightness Sun altitude
Rises 17:49:36 0° 267° (W) 2,666 9.8 -7.6°
Reaches altitude 10° 17:51:50 10° 270° (W) 1,778 8.0 -7.9°
Maximum altitude 17:55:50 64° 352° (N) 592 3.8 -8.6°
Enters shadow 17:59:35 12° 74° (ENE) 1,674 5.5 -9.1°
